Kimball, NE

12:06 AM MDT on August 25, 2016 (GMT -0600)
Kimball Municipal-Arraj

Weather History for KIBM - March, 2013

Change the Weather History Date:

Sunday, March 31, 2013

  Actual Average (KSNY) Record (KSNY)
Temperature  
Mean Temperature 46 °F 43 °F  
Max Temperature 65 °F 57 °F 82 °F (2012)
Min Temperature 26 °F 28 °F -7 °F (1954)
Degree Days  
Heating Degree Days 20 22  
Month to date heating degree days 804  
Since 1 July heating degree days 5385  
Cooling Degree Days 0 0  
Month to date cooling degree days 0  
Year to date cooling degree days 0  
Moisture  
Dew Point 24 °F    
Average Humidity 53    
Maximum Humidity 92    
Minimum Humidity 13    
Precipitation  
Precipitation 0.00 in 0.05 in 0.40 in (1979)
Month to date precipitation 1.10  
Year to date precipitation 1.62  
Sea Level Pressure  
Sea Level Pressure 30.03 in    
Wind  
Wind Speed 10 mph (WNW)    
Max Wind Speed 23 mph    
Max Gust Speed 32 mph    
Visibility 10 miles    
Events      
T = Trace of Precipitation, MM = Missing Value Source: NWS Daily Summary

Daily Weather History Graph

Daily Weather History Graph

Search for Another Location

Airport or City:

Trip Planner

Search our weather history database for the weather conditions in past years. The results will help you decide how hot, cold, wet, or windy it might be!

Date:

Astronomy

Mar. 31, 2013 Rise Set
Actual Time 7:39 AM CDT 8:19 PM CDT
Civil Twilight 7:11 AM CDT 8:46 PM CDT
Nautical Twilight 6:38 AM CDT 9:19 PM CDT
Astronomical Twilight 6:04 AM CDT 9:53 PM CDT
Moon 12:29 AM CDT (3/31) 10:26 AM CDT (3/31)
Length of Visible Light 13h 35m
Length of Day
12h 39m
Waning Gibbous, 77% of the Moon is Illuminated
Mar 31
Waning Gibbous
Apr 2
Last Quarter
Apr 10
New
Apr 18
First Quarter
Apr 25
Full

Hourly Weather History & Observations

Time (CDT) Temp. Windchill Dew Point Humidity Pressure Visibility Wind Dir Wind Speed Gust Speed Precip Events Conditions
12:15 AM 32.9 °F 26.7 °F 29.1 °F 86% 30.16 in 10.0 mi WNW 6.9 mph - N/A   Clear
12:35 AM 32.0 °F 26.4 °F 28.6 °F 87% 30.16 in 10.0 mi WNW 5.8 mph - N/A   Clear
12:55 AM 31.5 °F 24.2 °F 28.0 °F 87% 30.17 in 10.0 mi SW 8.1 mph - N/A   Clear
1:15 AM 30.6 °F 24.7 °F 27.3 °F 88% 30.16 in 10.0 mi West 5.8 mph - N/A   Clear
1:35 AM 30.2 °F 21.9 °F 27.5 °F 90% 30.16 in 10.0 mi WSW 9.2 mph - N/A   Clear
1:55 AM 30.6 °F 22.4 °F 27.7 °F 89% 30.16 in 10.0 mi WSW 9.2 mph - N/A   Clear
2:15 AM 30.0 °F 23.2 °F 26.8 °F 88% 30.16 in 10.0 mi WSW 6.9 mph - N/A   Clear
2:35 AM 30.0 °F 22.4 °F 27.1 °F 89% 30.15 in 10.0 mi West 8.1 mph - N/A   Clear
2:55 AM 28.4 °F 21.2 °F 25.7 °F 90% 30.15 in 10.0 mi West 6.9 mph - N/A   Clear
3:15 AM 27.7 °F 21.3 °F 25.3 °F 91% 30.14 in 10.0 mi West 5.8 mph - N/A   Clear
3:35 AM 27.1 °F 20.7 °F 24.8 °F 91% 30.13 in 10.0 mi West 5.8 mph - N/A   Clear
3:55 AM 26.8 °F 20.2 °F 24.3 °F 90% 30.12 in 10.0 mi West 5.8 mph - N/A   Clear
4:15 AM 26.6 °F 19.1 °F 24.4 °F 92% 30.11 in 10.0 mi West 6.9 mph - N/A   Clear
4:35 AM 27.0 °F 21.6 °F 25.0 °F 92% 30.10 in 10.0 mi West 4.6 mph - N/A   Clear
4:55 AM 27.3 °F 22.0 °F 25.3 °F 92% 30.09 in 10.0 mi WSW 4.6 mph - N/A   Clear
5:15 AM 27.7 °F 20.4 °F 25.2 °F 90% 30.08 in 10.0 mi WSW 6.9 mph - N/A   Clear
5:35 AM 27.7 °F 19.6 °F 24.8 °F 89% 30.08 in 10.0 mi WSW 8.1 mph - N/A   Clear
5:55 AM 30.7 °F 20.9 °F 26.8 °F 85% 30.07 in 10.0 mi WSW 12.7 mph - N/A   Clear
6:15 AM 28.9 °F 21.9 °F 25.2 °F 86% 30.07 in 10.0 mi WSW 6.9 mph - N/A   Clear
6:35 AM 27.7 °F 20.4 °F 24.1 °F 86% 30.07 in 10.0 mi WSW 6.9 mph - N/A   Clear
6:55 AM 27.1 °F 19.7 °F 23.5 °F 86% 30.07 in 10.0 mi WSW 6.9 mph - N/A   Clear
7:15 AM 26.4 °F 18.9 °F 22.8 °F 86% 30.06 in 10.0 mi WSW 6.9 mph - N/A   Clear
7:35 AM 27.0 °F 19.5 °F 23.0 °F 85% 30.05 in 10.0 mi West 6.9 mph - N/A   Clear
7:55 AM 28.2 °F 20.2 °F 24.3 °F 85% 30.05 in 10.0 mi WSW 8.1 mph - N/A   Clear
8:15 AM 30.6 °F 23.1 °F 26.6 °F 85% 30.04 in 10.0 mi WSW 8.1 mph - N/A   Clear
8:35 AM 32.0 °F 26.4 °F 28.8 °F 88% 30.04 in 10.0 mi West 5.8 mph - N/A   Clear
8:55 AM 36.9 °F 30.7 °F 32.5 °F 84% 30.04 in 10.0 mi WSW 8.1 mph - N/A   Clear
9:15 AM 39.7 °F 34.3 °F 34.3 °F 81% 30.04 in 10.0 mi WSW 8.1 mph - N/A   Clear
9:55 AM 47.1 °F - 36.7 °F 67% 30.02 in 10.0 mi WSW 15.0 mph 18.4 mph N/A   Clear
10:15 AM 48.7 °F - 36.5 °F 63% 30.02 in 10.0 mi SW 16.1 mph - N/A   Clear
10:35 AM 51.1 °F - 35.2 °F 55% 30.02 in 10.0 mi SW 17.3 mph - N/A   Clear
10:55 AM 53.2 °F - 32.7 °F 46% 30.01 in 10.0 mi WSW 17.3 mph 24.2 mph N/A   Clear
11:15 AM 54.7 °F - 31.8 °F 42% 30.01 in 10.0 mi SW 16.1 mph 21.9 mph N/A   Clear
11:35 AM 56.8 °F - 30.7 °F 37% 30.01 in 10.0 mi WSW 18.4 mph 23.0 mph N/A   Clear
11:55 AM 57.4 °F - 29.3 °F 34% 30.00 in 10.0 mi WSW 16.1 mph 21.9 mph N/A   Clear
12:15 PM 59.0 °F - 24.8 °F 27% 30.00 in 10.0 mi WNW 11.5 mph 19.6 mph N/A   Clear
12:35 PM 59.9 °F - 25.3 °F 27% 30.00 in 10.0 mi West 16.1 mph 26.5 mph N/A   Clear
12:55 PM 61.5 °F - 23.0 °F 23% 29.99 in 10.0 mi West 12.7 mph - N/A   Clear
1:15 PM 62.4 °F - 17.2 °F 17% 29.99 in 10.0 mi WNW 19.6 mph 31.1 mph N/A   Clear
1:35 PM 63.0 °F - 17.4 °F 17% 29.97 in 10.0 mi WNW 15.0 mph 25.3 mph N/A   Clear
1:55 PM 65.5 °F - 13.8 °F 14% 29.96 in 10.0 mi NW 23.0 mph 29.9 mph N/A   Clear
2:15 PM 65.8 °F - 12.7 °F 13% 29.96 in 10.0 mi WNW 23.0 mph 32.2 mph N/A   Clear
2:35 PM 65.7 °F - 13.6 °F 13% 29.95 in 10.0 mi NW 23.0 mph 32.2 mph N/A   Clear
2:55 PM 65.5 °F - 13.5 °F 13% 29.95 in 10.0 mi NW 15.0 mph 27.6 mph N/A   Clear
3:15 PM 64.9 °F - 16.3 °F 15% 29.95 in 10.0 mi North 17.3 mph 27.6 mph N/A   Clear
3:35 PM 64.8 °F - 16.5 °F 16% 29.95 in 10.0 mi NNW 21.9 mph 26.5 mph N/A   Clear
3:55 PM 64.9 °F - 16.2 °F 15% 29.95 in 10.0 mi NNW 15.0 mph 27.6 mph N/A   Clear
4:15 PM 65.3 °F - 16.2 °F 15% 29.94 in 10.0 mi NNW 23.0 mph 32.2 mph N/A   Clear
4:35 PM 65.3 °F - 15.6 °F 15% 29.94 in 10.0 mi North 16.1 mph 20.7 mph N/A   Clear
4:55 PM 65.5 °F - 14.9 °F 14% 29.94 in 10.0 mi North 13.8 mph 23.0 mph N/A   Clear
5:15 PM 64.9 °F - 14.7 °F 14% 29.94 in 10.0 mi NNW 15.0 mph 20.7 mph N/A   Clear
5:35 PM 64.9 °F - 14.9 °F 14% 29.94 in 10.0 mi North 12.7 mph 21.9 mph N/A   Clear
5:55 PM 64.6 °F - 15.3 °F 15% 29.94 in 10.0 mi NNW 17.3 mph 25.3 mph N/A   Clear
6:15 PM 63.5 °F - 16.0 °F 16% 29.94 in 10.0 mi North 16.1 mph 26.5 mph N/A   Clear
6:35 PM 63.1 °F - 15.6 °F 16% 29.94 in 10.0 mi North 19.6 mph 24.2 mph N/A   Clear
6:55 PM 62.6 °F - 16.9 °F 17% 29.94 in 10.0 mi North 18.4 mph 23.0 mph N/A   Clear
7:15 PM 61.7 °F - 18.3 °F 19% 29.94 in 10.0 mi North 18.4 mph 24.2 mph N/A   Clear
7:35 PM 60.1 °F - 19.4 °F 21% 29.94 in 10.0 mi North 18.4 mph 25.3 mph N/A   Clear
7:55 PM 58.1 °F - 19.6 °F 22% 29.95 in 10.0 mi North 13.8 mph 19.6 mph N/A   Clear
8:15 PM 56.3 °F - 19.8 °F 24% 29.95 in 10.0 mi North 16.1 mph 20.7 mph N/A   Clear
8:35 PM 54.7 °F - 20.7 °F 27% 29.97 in 10.0 mi NNE 17.3 mph 26.5 mph N/A   Clear
9:15 PM 50.4 °F - 22.8 °F 34% 29.99 in 10.0 mi NNE 16.1 mph - N/A   Clear
9:35 PM 48.2 °F - 24.8 °F 40% 30.01 in 10.0 mi NNE 10.4 mph - N/A   Clear
9:55 PM 46.6 °F - 25.5 °F 44% 30.02 in 10.0 mi NNE 16.1 mph - N/A   Clear
10:15 PM 45.3 °F 38.4 °F 28.4 °F 52% 30.06 in 10.0 mi ENE 16.1 mph 21.9 mph N/A   Clear
10:35 PM 43.2 °F 36.6 °F 28.2 °F 56% 30.08 in 10.0 mi ENE 12.7 mph - N/A   Clear
10:55 PM 41.0 °F 34.7 °F 27.7 °F 59% 30.08 in 10.0 mi NE 10.4 mph - N/A   Clear
11:15 PM 38.5 °F 32.7 °F 27.1 °F 64% 30.09 in 10.0 mi ENE 8.1 mph - N/A   Clear
11:35 PM 36.3 °F 30.8 °F 26.4 °F 67% 30.10 in 10.0 mi ENE 6.9 mph - N/A   Clear
11:55 PM 35.6 °F 28.6 °F 25.7 °F 67% 30.10 in 10.0 mi ENE 9.2 mph - N/A   Clear